Volver al catálogo

QIANFAN-197

ActivoComunicacionesPO
NORAD 69415·PAYLOAD·🇨🇳 China

Lanzado Jun 5, 2026 desde Wenchang Space Launch Site

Loading…

Próximos Pases (próximas 24 horas)

TLE

ActualizadoSource: Space-Track

Época: Sep 14, 2026, 23:17 UTC

1 69415U 26125Q   26257.97021289  .00000006  00000-0 -10009-4 0  9992
2 69415  88.9879 270.8349 0001955 100.4195 259.7176 13.51023707 14088

Sigue QIANFAN-197 en tiempo real con AllMySat

Download on the App Store